Overview Statistics Trail Chart Weather Telemetry Raw packets
 

This is the latest recevied weather packets stored in our database for station/object KO4ZGL-13. If no packets are shown the sender has not sent any weather packets the latest 10 day(s).

<< 16 17 18 19 20 21 22 >>
Time Temp. Humidity Pressure Rain* Wind** Luminosity Snow
1788535460 32.78° C 72% 1017.6 hPa 0 mm - 894 W/m² -
1788535159 32.78° C 74% 1017.7 hPa 0 mm - 886 W/m² -
1788534855 33.33° C 73% 1017.7 hPa 0 mm - 843 W/m² -
1788534550 32.78° C 73% 1017.5 hPa 0 mm - 734 W/m² -
1788534245 32.78° C 74% 1017.5 hPa 0 mm - 770 W/m² -
1788533942 32.22° C 74% 1017.7 hPa 0 mm - 718 W/m² -
1788533639 32.78° C 77% 1017.7 hPa 0 mm - 677 W/m² -
1788533334 31.67° C 80% 1017.7 hPa 0 mm - 675 W/m² -
1788533030 31.67° C 81% 1017.8 hPa 0 mm - 703 W/m² -
1788532725 31.11° C 80% 1017.6 hPa 0 mm - 684 W/m² -
1788532422 30.56° C 82% 1017.7 hPa 0 mm - 660 W/m² -
1788532118 30.56° C 82% 1017.8 hPa 0 mm - 93 W/m² -
1788531813 30.56° C 84% 1017.6 hPa 0 mm - 365 W/m² -
1788531508 30.56° C 82% 1017.9 hPa 0 mm - 117 W/m² -
1788531203 30.56° C 82% 1017.9 hPa 0 mm - 307 W/m² -
1788530899 30.56° C 84% 1017.7 hPa 0 mm - 600 W/m² -
1788530594 30.56° C 85% 1017.8 hPa 0 mm - 503 W/m² -
1788530293 30° C 85% 1017.7 hPa 0 mm - 296 W/m² -
1788529988 30.56° C 84% 1017.7 hPa 0 mm - 100 W/m² -
1788529684 30.56° C 84% 1017.6 hPa 0 mm - 119 W/m² -
1788529384 30.56° C 86% 1017.8 hPa 0 mm - 168 W/m² -
1788529079 30° C 89% 1017.8 hPa 0 mm - 387 W/m² -
1788528775 29.44° C 91% 1017.8 hPa 0 mm - 383 W/m² -
1788528474 28.89° C 96% 1017.7 hPa 0 mm - 330 W/m² -
1788528170 27.78° C 98% 1017.7 hPa 0 mm - 372 W/m² -

* Rain latest hour (hover to see other rain measurements)
** Current wind speed in m/s (hover to see current wind gust speed)